• In Uzbekistan
  • List of Countries
  • For 7 days
  • Water Temperature
  • Satellite Maps
  • Weather Map
  • Weather Widgets
  • user-avatar
    Login

    Hourly Weather Dobrogoszcz

    Today, 19 February, Tuesday

    Time Temperature Precipitation Wind Pressure Humidity
    00:00 +4°C° 0 mm 2 mps 748 mmHg 85%
    01:00 +3°C° 0 mm 2 mps 747 mmHg 87%
    02:00 +3°C° 0 mm 2 mps 747 mmHg 86%
    03:00 +2°C° 0 mm 3 mps 746 mmHg 86%
    04:00 +2°C° 0 mm 3 mps 746 mmHg 86%
    05:00 +2°C° 0 mm 3 mps 746 mmHg 87%
    06:00 +2°C° 0 mm 3 mps 745 mmHg 87%
    07:00 +1°C° 0 mm 3 mps 745 mmHg 88%
    08:00 +2°C° 0 mm 3 mps 745 mmHg 85%
    09:00 +4°C° 0 mm 4 mps 745 mmHg 81%
    10:00 +5°C° 0 mm 5 mps 745 mmHg 78%
    11:00 +6°C° 0 mm 5 mps 745 mmHg 76%
    12:00 +7°C° 0 mm 5 mps 745 mmHg 75%
    13:00 +7°C° 0 mm 5 mps 745 mmHg 73%
    14:00 +7°C° 0.1 mm 5 mps 745 mmHg 73%
    15:00 +7°C° 0.1 mm 5 mps 745 mmHg 74%
    16:00 +6°C° 0.1 mm 5 mps 745 mmHg 74%
    17:00 +6°C° 0.1 mm 5 mps 745 mmHg 76%
    18:00 +5°C° 0.1 mm 5 mps 745 mmHg 78%
    19:00 +3°C° 0.1 mm 5 mps 745 mmHg 80%
    20:00 +3°C° 0.1 mm 5 mps 745 mmHg 81%
    21:00 +3°C° 0.1 mm 5 mps 745 mmHg 82%
    22:00 +3°C° 0.1 mm 5 mps 745 mmHg 82%
    23:00 +3°C° 0.1 mm 6 mps 746 mmHg 82%

    Tomorrow, 20 February, Wednesday

    Time Temperature Precipitation Wind Pressure Humidity
    00:00 +3°C° 0.1 mm 6 mps 746 mmHg 82%
    01:00 +3°C° 0.1 mm 6 mps 746 mmHg 82%
    02:00 +3°C° 0.1 mm 6 mps 746 mmHg 83%
    03:00 +2°C° 0.1 mm 7 mps 746 mmHg 83%
    04:00 +2°C° 0.1 mm 7 mps 746 mmHg 83%
    05:00 +2°C° 0.1 mm 7 mps 747 mmHg 83%
    06:00 +2°C° 0.1 mm 7 mps 747 mmHg 82%
    07:00 +2°C° 0.1 mm 7 mps 747 mmHg 82%
    08:00 +2°C° 0.1 mm 7 mps 748 mmHg 80%
    09:00 +2°C° 0.1 mm 7 mps 748 mmHg 79%
    10:00 +3°C° 0.1 mm 6 mps 749 mmHg 78%
    11:00 +3°C° 0.1 mm 6 mps 749 mmHg 76%
    12:00 +3°C° 0.1 mm 6 mps 749 mmHg 75%
    13:00 +3°C° 0.1 mm 6 mps 750 mmHg 74%
    14:00 +4°C° 0 mm 6 mps 750 mmHg 74%
    15:00 +5°C° 0 mm 5 mps 750 mmHg 75%
    16:00 +5°C° 0 mm 5 mps 751 mmHg 76%
    17:00 +4°C° 0 mm 4 mps 751 mmHg 80%
    18:00 +4°C° 0 mm 4 mps 751 mmHg 84%
    19:00 +4°C° 0 mm 3 mps 752 mmHg 87%
    20:00 +4°C° 0 mm 3 mps 752 mmHg 89%
    21:00 +4°C° 0 mm 3 mps 752 mmHg 90%
    22:00 +4°C° 0 mm 3 mps 752 mmHg 91%
    23:00 +4°C° 0.2 mm 3 mps 752 mmHg 92%

    Day after tomorrow, 21 February, Thursday

    Time Temperature Precipitation Wind Pressure Humidity
    00:00 +4°C° 0.2 mm 3 mps 752 mmHg 93%
    01:00 +4°C° 0.2 mm 3 mps 752 mmHg 93%
    02:00 +4°C° 0.1 mm 3 mps 752 mmHg 93%
    03:00 +4°C° 0.1 mm 3 mps 751 mmHg 93%
    04:00 +4°C° 0.1 mm 3 mps 751 mmHg 92%
    05:00 +4°C° 0.7 mm 4 mps 751 mmHg 92%
    06:00 +4°C° 0.7 mm 4 mps 750 mmHg 92%
    07:00 +3°C° 0.7 mm 5 mps 750 mmHg 92%
    08:00 +3°C° 0.7 mm 5 mps 750 mmHg 91%
    09:00 +5°C° 0.7 mm 5 mps 750 mmHg 90%
    10:00 +4°C° 0.7 mm 6 mps 750 mmHg 89%
    11:00 +4°C° 0.4 mm 6 mps 750 mmHg 89%
    12:00 +4°C° 0.4 mm 6 mps 750 mmHg 88%
    13:00 +5°C° 0.4 mm 6 mps 749 mmHg 88%
    14:00 +4°C° 1 mm 6 mps 749 mmHg 89%
    15:00 +4°C° 1 mm 6 mps 749 mmHg 90%
    16:00 +4°C° 1 mm 6 mps 749 mmHg 92%
    17:00 +4°C° 0.5 mm 6 mps 750 mmHg 92%
    18:00 +5°C° 0.5 mm 5 mps 750 mmHg 92%
    19:00 +5°C° 0.5 mm 5 mps 750 mmHg 92%
    20:00 +5°C° 0.6 mm 5 mps 751 mmHg 92%
    21:00 +5°C° 0.6 mm 5 mps 752 mmHg 91%
    22:00 +5°C° 0.6 mm 5 mps 752 mmHg 91%
    23:00 +3°C° 0.5 mm 5 mps 753 mmHg 89%

    22 February, Friday

    Time Temperature Precipitation Wind Pressure Humidity
    00:00 +2°C° 0.5 mm 5 mps 754 mmHg 86%
    01:00 0°C° 0.5 mm 5 mps 755 mmHg 84%
    02:00 0°C° 0 mm 5 mps 756 mmHg 82%
    03:00 -1°C° 0 mm 5 mps 757 mmHg 80%
    04:00 -2°C° 0 mm 4 mps 758 mmHg 78%
    05:00 -2°C° 0 mm 4 mps 759 mmHg 78%
    06:00 -2°C° 0 mm 3 mps 760 mmHg 77%
    07:00 -2°C° 0 mm 2 mps 761 mmHg 77%
    08:00 -2°C° 0 mm 3 mps 762 mmHg 72%
    09:00 -1°C° 0 mm 3 mps 763 mmHg 67%
    10:00 -1°C° 0 mm 3 mps 764 mmHg 61%
    11:00 0°C° 0 mm 3 mps 764 mmHg 57%
    12:00 0°C° 0 mm 3 mps 765 mmHg 53%
    13:00 +2°C° 0 mm 2 mps 765 mmHg 48%
    14:00 +2°C° 0 mm 2 mps 765 mmHg 47%
    15:00 +1°C° 0 mm 2 mps 766 mmHg 46%
    16:00 +2°C° 0 mm 1 mps 766 mmHg 45%
    17:00 +1°C° 0 mm 1 mps 766 mmHg 49%
    18:00 0°C° 0 mm 1 mps 766 mmHg 52%
    19:00 -3°C° 0 mm 2 mps 766 mmHg 56%
    20:00 -1°C° 0 mm 1 mps 766 mmHg 57%
    21:00 -1°C° 0 mm 1 mps 767 mmHg 57%
    22:00 -1°C° 0 mm 1 mps 767 mmHg 57%
    23:00 -1°C° 0 mm 1 mps 767 mmHg 56%

    23 February, Saturday

    Time Temperature Precipitation Wind Pressure Humidity
    00:00 -1°C° 0 mm 1 mps 767 mmHg 56%
    01:00 -1°C° 0 mm 1 mps 767 mmHg 55%
    02:00 -1°C° 0 mm 1 mps 767 mmHg 55%
    03:00 -1°C° 0 mm 1 mps 766 mmHg 55%
    04:00 -1°C° 0 mm 1 mps 766 mmHg 55%
    05:00 -1°C° 0 mm 1 mps 766 mmHg 55%
    06:00 -1°C° 0 mm 1 mps 766 mmHg 56%
    07:00 -1°C° 0 mm 1 mps 765 mmHg 56%
    08:00 0°C° 0 mm 1 mps 765 mmHg 52%
    09:00 +1°C° 0 mm 1 mps 766 mmHg 49%
    10:00 +2°C° 0 mm 2 mps 766 mmHg 45%
    11:00 +2°C° 0 mm 2 mps 765 mmHg 46%
    12:00 +2°C° 0 mm 2 mps 765 mmHg 46%
    13:00 +3°C° 0 mm 2 mps 765 mmHg 46%
    14:00 +3°C° 0 mm 2 mps 764 mmHg 50%
    15:00 +3°C° 0 mm 2 mps 764 mmHg 53%
    16:00 +3°C° 0 mm 2 mps 764 mmHg 57%
    17:00 +2°C° 0 mm 2 mps 763 mmHg 65%
    18:00 +1°C° 0 mm 2 mps 763 mmHg 72%
    19:00 -1°C° 0 mm 2 mps 763 mmHg 80%
    20:00 -1°C° 0 mm 2 mps 763 mmHg 84%
    21:00 -1°C° 0 mm 2 mps 763 mmHg 88%
    22:00 +1°C° 0 mm 2 mps 763 mmHg 91%
    23:00 +1°C° 0 mm 2 mps 763 mmHg 93%

    24 February, Sunday

    Time Temperature Precipitation Wind Pressure Humidity
    00:00 -1°C° 0 mm 2 mps 763 mmHg 95%
    01:00 -1°C° 0 mm 2 mps 763 mmHg 97%
    02:00 -1°C° 0 mm 2 mps 763 mmHg 97%
    03:00 +1°C° 0 mm 1 mps 763 mmHg 98%
    04:00 +1°C° 0 mm 1 mps 763 mmHg 98%
    05:00 +2°C° 0 mm 1 mps 763 mmHg 98%
    06:00 +2°C° 0 mm 1 mps 763 mmHg 98%
    07:00 +2°C° 0 mm 1 mps 763 mmHg 98%
    08:00 +3°C° 0 mm 1 mps 764 mmHg 95%
    09:00 +4°C° 0 mm 1 mps 764 mmHg 93%
    10:00 +4°C° 0 mm 1 mps 764 mmHg 90%
    11:00 +5°C° 0 mm 1 mps 764 mmHg 87%
    12:00 +5°C° 0 mm 1 mps 764 mmHg 85%
    13:00 +6°C° 0 mm 1 mps 764 mmHg 82%
    14:00 +6°C° 0 mm 1 mps 764 mmHg 82%
    15:00 +6°C° 0 mm 1 mps 764 mmHg 82%
    16:00 +6°C° 0 mm 1 mps 764 mmHg 83%
    17:00 +5°C° 0 mm 1 mps 764 mmHg 86%
    18:00 +4°C° 0 mm 1 mps 764 mmHg 90%
    19:00 +2°C° 0 mm 0 mps 765 mmHg 93%
    20:00 +2°C° 0 mm 0 mps 765 mmHg 94%
    21:00 +2°C° 0 mm 0 mps 765 mmHg 94%
    22:00 +2°C° 0 mm 0 mps 765 mmHg 94%
    23:00 +2°C° 0 mm 0 mps 765 mmHg 95%
    Show more